Time,TemperatureF,DewpointF,PressureIn,WindDirection,WindDirectionDegrees,WindSpeedMPH,WindSpeedGustMPH,Humidity,HourlyPrecipIn,Conditions,Clouds,dailyrainin,SolarRadiationWatts/m^2,SoftwareType,DateUTC
2013-03-10 00:00:00,40.9,36.5,30.27,NW,321,1.0,2.0,84,0.00,,---,0.00,0.00,VWS V14.01,2013-03-10 05:00:00,
2013-03-10 00:01:00,40.8,36.3,30.28,NW,321,0.0,2.0,84,0.00,,---,0.00,0.00,VWS V14.01,2013-03-10 05:01:00,
2013-03-10 00:06:00,40.6,36.5,30.28,NW,321,0.0,0.0,85,0.00,,---,0.00,0.00,VWS V14.01,2013-03-10 05:06:00,
2013-03-10 00:11:00,40.5,36.3,30.27,NW,321,0.0,0.0,85,0.00,,---,0.00,0.00,VWS V14.01,2013-03-10 05:11:00,
2013-03-10 00:20:00,40.2,36.1,30.27,NW,321,0.0,0.0,85,0.00,,---,0.00,0.00,VWS V14.01,2013-03-10 05:20:00,
2013-03-10 00:25:00,40.0,35.9,30.27,NW,321,0.0,0.0,85,0.00,,---,0.00,0.00,VWS V14.01,2013-03-10 05:25:00,
2013-03-10 00:30:00,39.8,35.7,30.27,NW,321,0.0,0.0,85,0.00,,---,0.00,0.00,VWS V14.01,2013-03-10 05:30:00,
2013-03-10 00:35:00,39.6,35.8,30.28,NW,321,0.0,0.0,86,0.00,,---,0.00,0.00,VWS V14.01,2013-03-10 05:35:00,
2013-03-10 00:40:00,39.4,35.6,30.27,NW,321,0.0,0.0,86,0.00,,---,0.00,0.00,VWS V14.01,2013-03-10 05:40:00,
2013-03-10 00:46:00,39.3,35.5,30.28,NW,321,0.0,0.0,86,0.00,,---,0.00,0.00,VWS V14.01,2013-03-10 05:46:00,
2013-03-10 00:51:00,39.1,35.3,30.28,NW,321,0.0,0.0,86,0.00,,---,0.00,0.00,VWS V14.01,2013-03-10 05:51:00,
2013-03-10 00:56:00,39.1,35.6,30.27,NW,321,0.0,0.0,87,0.00,,---,0.00,0.00,VWS V14.01,2013-03-10 05:56:00,
2013-03-10 01:01:00,38.9,35.4,30.27,NW,321,0.0,0.0,87,0.00,,---,0.00,0.00,VWS V14.01,2013-03-10 06:01:00,
2013-03-10 01:06:00,38.8,36.7,30.27,NW,321,0.0,0.0,92,0.00,,---,0.00,0.00,VWS V14.01,2013-03-10 06:06:00,
2013-03-10 01:11:00,38.7,35.5,30.27,NW,321,0.0,0.0,88,0.00,,---,0.00,0.00,VWS V14.01,2013-03-10 06:11:00,
2013-03-10 01:16:00,38.6,35.4,30.27,NW,321,0.0,0.0,88,0.00,,---,0.00,0.00,VWS V14.01,2013-03-10 06:16:00,
2013-03-10 01:21:00,38.5,35.3,30.27,NW,321,0.0,0.0,88,0.00,,---,0.00,0.00,VWS V14.01,2013-03-10 06:21:00,
2013-03-10 01:26:00,38.5,35.5,30.26,NW,321,0.0,0.0,89,0.00,,---,0.00,0.00,VWS V14.01,2013-03-10 06:26:00,
2013-03-10 01:31:00,38.5,35.5,30.26,NW,321,0.0,0.0,89,0.00,,---,0.00,0.00,VWS V14.01,2013-03-10 06:31:00,
2013-03-10 01:36:00,38.4,35.5,30.26,NW,321,0.0,0.0,89,0.00,,---,0.00,0.00,VWS V14.01,2013-03-10 06:36:00,
2013-03-10 01:41:00,38.4,35.5,30.27,NW,321,0.0,1.0,89,0.00,,---,0.00,0.00,VWS V14.01,2013-03-10 06:41:00,
2013-03-10 01:46:00,38.2,35.2,30.27,NW,321,0.0,0.0,89,0.00,,---,0.00,0.00,VWS V14.01,2013-03-10 06:46:00,
2013-03-10 01:51:00,38.1,35.2,30.27,NW,321,0.0,0.0,89,0.00,,---,0.00,0.00,VWS V14.01,2013-03-10 06:51:00,
2013-03-10 01:56:00,38.0,35.0,30.26,NW,321,0.0,0.0,89,0.00,,---,0.00,0.00,VWS V14.01,2013-03-10 06:56:00,
2013-03-10 03:01:00,37.9,35.0,30.26,NW,321,0.0,0.0,89,0.00,,---,0.00,0.00,VWS V14.01,2013-03-10 07:01:00,
2013-03-10 03:06:00,37.8,34.9,30.27,NW,321,0.0,0.0,89,0.00,,---,0.00,0.00,VWS V14.01,2013-03-10 07:06:00,
2013-03-10 03:11:00,37.7,34.8,30.26,NW,321,0.0,0.0,89,0.00,,---,0.00,0.00,VWS V14.01,2013-03-10 07:11:00,
2013-03-10 03:16:00,37.6,34.7,30.26,NW,321,0.0,0.0,89,0.00,,---,0.00,0.00,VWS V14.01,2013-03-10 07:16:00,
2013-03-10 03:21:00,37.5,34.6,30.26,NW,321,0.0,0.0,89,0.00,,---,0.00,0.00,VWS V14.01,2013-03-10 07:21:00,
2013-03-10 03:26:00,37.4,34.5,30.26,NW,321,0.0,0.0,89,0.00,,---,0.00,0.00,VWS V14.01,2013-03-10 07:26:00,
2013-03-10 03:31:00,37.2,34.3,30.26,NW,321,0.0,0.0,89,0.00,,---,0.00,0.00,VWS V14.01,2013-03-10 07:31:00,
2013-03-10 03:36:00,37.1,34.4,30.26,NW,321,0.0,1.0,90,0.00,,---,0.00,0.00,VWS V14.01,2013-03-10 07:36:00,
2013-03-10 03:41:00,37.1,34.4,30.26,NW,321,0.0,0.0,90,0.00,,---,0.00,0.00,VWS V14.01,2013-03-10 07:41:00,
2013-03-10 03:46:00,36.9,34.2,30.25,NW,321,0.0,0.0,90,0.00,,---,0.00,0.00,VWS V14.01,2013-03-10 07:46:00,
2013-03-10 03:51:00,36.9,34.2,30.25,NW,321,0.0,0.0,90,0.00,,---,0.00,0.00,VWS V14.01,2013-03-10 07:51:00,
2013-03-10 03:56:00,36.8,34.2,30.25,NW,321,0.0,0.0,90,0.00,,---,0.00,0.00,VWS V14.01,2013-03-10 07:56:00,
2013-03-10 04:01:00,36.7,34.0,30.25,NW,321,0.0,0.0,90,0.00,,---,0.00,0.00,VWS V14.01,2013-03-10 08:01:00,
2013-03-10 04:06:00,36.6,34.0,30.24,NW,321,0.0,0.0,90,0.00,,---,0.00,0.00,VWS V14.01,2013-03-10 08:06:00,
2013-03-10 04:12:00,36.5,33.8,30.24,NW,321,0.0,0.0,90,0.00,,---,0.00,0.00,VWS V14.01,2013-03-10 08:12:00,
2013-03-10 04:17:00,36.3,33.9,30.24,NW,321,0.0,0.0,91,0.00,,---,0.00,0.00,VWS V14.01,2013-03-10 08:17:00,
2013-03-10 04:22:00,36.1,33.7,30.24,NW,321,0.0,0.0,91,0.00,,---,0.00,0.00,VWS V14.01,2013-03-10 08:22:00,
2013-03-10 04:27:00,36.0,33.6,30.24,NW,321,0.0,0.0,91,0.00,,---,0.00,0.00,VWS V14.01,2013-03-10 08:27:00,
2013-03-10 04:32:00,36.0,33.6,30.24,NW,321,0.0,0.0,91,0.00,,---,0.00,0.00,VWS V14.01,2013-03-10 08:32:00,
2013-03-10 04:37:00,35.9,33.5,30.24,NW,321,0.0,0.0,91,0.00,,---,0.00,0.00,VWS V14.01,2013-03-10 08:37:00,
2013-03-10 04:42:00,35.9,33.5,30.24,NW,321,0.0,0.0,91,0.00,,---,0.00,0.00,VWS V14.01,2013-03-10 08:42:00,
2013-03-10 04:47:00,35.7,33.3,30.24,NW,321,0.0,0.0,91,0.00,,---,0.00,0.00,VWS V14.01,2013-03-10 08:47:00,
2013-03-10 04:52:00,35.6,33.2,30.25,NW,321,0.0,0.0,91,0.00,,---,0.00,0.00,VWS V14.01,2013-03-10 08:52:00,
2013-03-10 04:57:00,35.5,33.1,30.25,NW,321,0.0,0.0,91,0.00,,---,0.00,0.00,VWS V14.01,2013-03-10 08:57:00,
2013-03-10 05:02:00,35.4,33.0,30.25,NW,321,0.0,0.0,91,0.00,,---,0.00,0.00,VWS V14.01,2013-03-10 09:02:00,
2013-03-10 05:08:00,35.3,32.9,30.25,NW,321,0.0,0.0,91,0.00,,---,0.00,0.00,VWS V14.01,2013-03-10 09:08:00,
2013-03-10 05:13:00,35.3,32.9,30.25,NW,321,0.0,0.0,91,0.00,,---,0.00,0.00,VWS V14.01,2013-03-10 09:13:00,
2013-03-10 05:18:00,35.2,33.1,30.25,NW,321,0.0,0.0,92,0.00,,---,0.00,0.00,VWS V14.01,2013-03-10 09:18:00,
2013-03-10 05:23:00,35.2,33.1,30.25,NW,321,0.0,0.0,92,0.00,,---,0.00,0.00,VWS V14.01,2013-03-10 09:23:00,
2013-03-10 05:28:00,35.1,33.0,30.25,NW,321,0.0,0.0,92,0.00,,---,0.00,0.00,VWS V14.01,2013-03-10 09:28:00,
2013-03-10 05:33:00,35.0,32.9,30.25,NW,321,0.0,0.0,92,0.00,,---,0.00,0.00,VWS V14.01,2013-03-10 09:33:00,
2013-03-10 05:38:00,35.0,32.9,30.26,NW,321,0.0,0.0,92,0.00,,---,0.00,0.00,VWS V14.01,2013-03-10 09:38:00,
2013-03-10 05:45:00,34.9,32.8,30.26,NW,321,0.0,0.0,92,0.00,,---,0.00,0.00,VWS V14.01,2013-03-10 09:45:00,
2013-03-10 05:50:00,34.9,32.8,30.26,NW,321,0.0,0.0,92,0.00,,---,0.00,0.00,VWS V14.01,2013-03-10 09:50:00,
2013-03-10 05:55:00,34.9,32.8,30.26,NW,321,0.0,0.0,92,0.00,,---,0.00,0.00,VWS V14.01,2013-03-10 09:55:00,
2013-03-10 06:00:00,34.8,32.7,30.25,NW,321,0.0,0.0,92,0.00,,---,0.00,0.00,VWS V14.01,2013-03-10 10:00:00,
2013-03-10 06:05:00,34.8,32.7,30.25,NW,321,0.0,0.0,92,0.00,,---,0.00,0.00,VWS V14.01,2013-03-10 10:05:00,
2013-03-10 06:10:00,34.7,32.6,30.25,NW,321,0.0,0.0,92,0.00,,---,0.00,0.00,VWS V14.01,2013-03-10 10:10:00,
2013-03-10 06:15:00,34.7,32.6,30.26,NW,321,0.0,0.0,92,0.00,,---,0.00,0.00,VWS V14.01,2013-03-10 10:15:00,
2013-03-10 06:20:00,34.6,32.5,30.26,NW,321,0.0,0.0,92,0.00,,---,0.00,0.00,VWS V14.01,2013-03-10 10:20:00,
2013-03-10 06:25:00,34.6,32.5,30.26,NW,321,0.0,0.0,92,0.00,,---,0.00,0.00,VWS V14.01,2013-03-10 10:25:00,
2013-03-10 06:30:00,34.5,32.4,30.26,NW,321,0.0,0.0,92,0.00,,---,0.00,0.00,VWS V14.01,2013-03-10 10:30:00,
2013-03-10 06:36:00,34.4,32.3,30.25,NW,321,0.0,0.0,92,0.00,,---,0.00,0.00,VWS V14.01,2013-03-10 10:36:00,
2013-03-10 06:41:00,34.4,32.3,30.25,NW,321,0.0,0.0,92,0.00,,---,0.00,0.00,VWS V14.01,2013-03-10 10:41:00,
2013-03-10 06:46:00,34.3,32.2,30.25,NW,321,0.0,0.0,92,0.00,,---,0.00,0.00,VWS V14.01,2013-03-10 10:46:00,
2013-03-10 06:51:00,34.3,32.2,30.26,NW,321,0.0,0.0,92,0.00,,---,0.00,0.00,VWS V14.01,2013-03-10 10:51:00,
2013-03-10 06:56:00,34.2,32.1,30.25,NW,321,0.0,0.0,92,0.00,,---,0.00,0.00,VWS V14.01,2013-03-10 10:56:00,
2013-03-10 07:01:00,34.1,32.0,30.25,NW,321,0.0,0.0,92,0.00,,---,0.00,0.00,VWS V14.01,2013-03-10 11:01:00,
2013-03-10 07:06:00,34.0,31.9,30.25,NW,321,0.0,0.0,92,0.00,,---,0.00,0.00,VWS V14.01,2013-03-10 11:06:00,
2013-03-10 07:11:00,33.9,31.8,30.25,NW,321,0.0,0.0,92,0.00,,---,0.00,0.00,VWS V14.01,2013-03-10 11:11:00,
2013-03-10 07:16:00,33.9,31.8,30.25,NW,321,0.0,0.0,92,0.00,,---,0.00,0.00,VWS V14.01,2013-03-10 11:16:00,
2013-03-10 07:21:00,33.8,31.7,30.25,NW,321,0.0,0.0,92,0.00,,---,0.00,0.00,VWS V14.01,2013-03-10 11:21:00,
2013-03-10 07:26:00,33.8,31.7,30.25,NW,321,0.0,0.0,92,0.00,,---,0.00,0.00,VWS V14.01,2013-03-10 11:26:00,
2013-03-10 07:31:00,33.7,31.9,30.25,NW,321,0.0,0.0,93,0.00,,---,0.00,0.00,VWS V14.01,2013-03-10 11:31:00,
2013-03-10 07:36:00,33.7,31.9,30.25,NW,321,0.0,0.0,93,0.00,,---,0.00,0.00,VWS V14.01,2013-03-10 11:36:00,
2013-03-10 07:41:00,33.7,31.9,30.25,NW,321,0.0,1.0,93,0.00,,---,0.00,5.00,VWS V14.01,2013-03-10 11:41:00,
2013-03-10 07:46:00,33.8,32.0,30.24,NW,321,0.0,0.0,93,0.00,,---,0.00,11.00,VWS V14.01,2013-03-10 11:46:00,
2013-03-10 07:51:00,34.0,32.2,30.24,NW,321,0.0,0.0,93,0.00,,---,0.00,14.00,VWS V14.01,2013-03-10 11:51:00,
2013-03-10 07:57:00,34.1,32.3,30.25,NW,321,0.0,0.0,93,0.00,,---,0.00,16.00,VWS V14.01,2013-03-10 11:57:00,
2013-03-10 08:02:00,34.2,32.4,30.26,NW,321,0.0,0.0,93,0.00,,---,0.00,21.00,VWS V14.01,2013-03-10 12:02:00,
2013-03-10 08:07:00,34.2,32.4,30.26,NW,321,0.0,0.0,93,0.00,,---,0.00,28.00,VWS V14.01,2013-03-10 12:07:00,
2013-03-10 08:12:00,34.3,32.5,30.26,NW,321,0.0,0.0,93,0.00,,---,0.00,35.00,VWS V14.01,2013-03-10 12:12:00,
2013-03-10 08:17:00,34.6,32.8,30.27,NW,321,0.0,2.0,93,0.00,,---,0.00,40.00,VWS V14.01,2013-03-10 12:17:00,
2013-03-10 08:22:00,34.9,33.3,30.27,NW,321,0.0,0.0,94,0.00,,---,0.00,53.00,VWS V14.01,2013-03-10 12:22:00,
2013-03-10 08:27:00,35.1,33.5,30.27,NW,321,0.0,0.0,94,0.00,,---,0.00,58.00,VWS V14.01,2013-03-10 12:27:00,
2013-03-10 08:32:00,35.3,33.8,30.28,NW,321,0.0,0.0,94,0.00,,---,0.00,65.00,VWS V14.01,2013-03-10 12:32:00,
2013-03-10 08:37:00,35.9,34.3,30.28,NW,321,0.0,0.0,94,0.00,,---,0.00,76.00,VWS V14.01,2013-03-10 12:37:00,
2013-03-10 08:42:00,36.5,34.9,30.28,NW,321,0.0,0.0,94,0.00,,---,0.00,88.00,VWS V14.01,2013-03-10 12:42:00,
2013-03-10 08:47:00,37.1,35.5,30.29,NW,321,0.0,0.0,94,0.00,,---,0.00,104.00,VWS V14.01,2013-03-10 12:47:00,
2013-03-10 08:52:00,37.5,35.9,30.29,NW,321,0.0,0.0,94,0.00,,---,0.00,105.00,VWS V14.01,2013-03-10 12:52:00,
2013-03-10 08:58:00,38.0,36.7,30.29,NW,321,0.0,0.0,95,0.00,,---,0.00,102.00,VWS V14.01,2013-03-10 12:58:00,
2013-03-10 09:03:00,38.5,37.2,30.29,NW,321,0.0,0.0,95,0.00,,---,0.00,104.00,VWS V14.01,2013-03-10 13:03:00,
2013-03-10 09:08:00,39.1,37.8,30.29,NW,319,0.0,0.0,95,0.00,,---,0.00,105.00,VWS V14.01,2013-03-10 13:08:00,
2013-03-10 09:13:00,39.5,38.2,30.29,NW,319,0.0,0.0,95,0.00,,---,0.00,114.00,VWS V14.01,2013-03-10 13:13:00,
2013-03-10 09:18:00,39.8,38.5,30.29,NW,321,0.0,0.0,95,0.00,,---,0.00,123.00,VWS V14.01,2013-03-10 13:18:00,
2013-03-10 09:23:00,40.2,38.9,30.30,NW,321,0.0,2.0,95,0.00,,---,0.00,130.00,VWS V14.01,2013-03-10 13:23:00,
2013-03-10 09:28:00,40.7,39.4,30.30,NW,321,0.0,0.0,95,0.00,,---,0.00,134.00,VWS V14.01,2013-03-10 13:28:00,
2013-03-10 09:33:00,41.0,39.7,30.30,NW,321,0.0,0.0,95,0.00,,---,0.00,139.00,VWS V14.01,2013-03-10 13:33:00,
2013-03-10 09:38:00,41.4,40.1,30.30,NW,321,0.0,0.0,95,0.00,,---,0.00,155.00,VWS V14.01,2013-03-10 13:38:00,
2013-03-10 09:43:00,41.8,40.5,30.30,NW,321,0.0,0.0,95,0.00,,---,0.00,183.00,VWS V14.01,2013-03-10 13:43:00,
2013-03-10 09:48:00,42.2,40.9,30.29,NW,321,0.0,1.0,95,0.00,,---,0.00,199.00,VWS V14.01,2013-03-10 13:48:00,
2013-03-10 09:53:00,42.6,41.3,30.30,NW,321,0.0,0.0,95,0.00,,---,0.00,221.00,VWS V14.01,2013-03-10 13:53:00,
2013-03-10 09:59:00,43.1,41.8,30.29,NW,321,0.0,0.0,95,0.00,,---,0.00,279.00,VWS V14.01,2013-03-10 13:59:00,
2013-03-10 10:04:00,43.8,42.5,30.29,NW,321,0.0,0.0,95,0.00,,---,0.00,364.00,VWS V14.01,2013-03-10 14:04:00,
2013-03-10 10:09:00,44.8,43.5,30.29,NW,321,0.0,0.0,95,0.00,,---,0.00,413.00,VWS V14.01,2013-03-10 14:09:00,
2013-03-10 10:14:00,45.9,44.5,30.29,NW,321,0.0,2.0,95,0.00,,---,0.00,450.00,VWS V14.01,2013-03-10 14:14:00,
2013-03-10 10:19:00,47.3,45.7,30.29,NW,323,1.0,1.0,94,0.00,,---,0.00,471.00,VWS V14.01,2013-03-10 14:19:00,
2013-03-10 10:24:00,48.7,46.2,30.29,NW,323,0.0,1.0,91,0.00,,---,0.00,473.00,VWS V14.01,2013-03-10 14:24:00,
2013-03-10 10:29:00,50.1,47.0,30.29,NW,326,4.0,4.0,89,0.00,,---,0.00,346.00,VWS V14.01,2013-03-10 14:29:00,
2013-03-10 10:34:00,51.5,45.9,30.29,SE,140,0.0,6.0,81,0.00,,---,0.00,403.00,VWS V14.01,2013-03-10 14:34:00,
2013-03-10 10:39:00,52.9,45.5,30.29,SE,130,4.0,5.0,76,0.00,,---,0.00,497.00,VWS V14.01,2013-03-10 14:39:00,
2013-03-10 10:44:00,54.2,45.4,30.28,ESE,120,1.0,6.0,72,0.00,,---,0.00,366.00,VWS V14.01,2013-03-10 14:44:00,
2013-03-10 10:49:00,55.2,45.6,30.28,ESE,121,2.0,6.0,70,0.00,,---,0.00,276.00,VWS V14.01,2013-03-10 14:49:00,
2013-03-10 10:55:00,55.8,44.6,30.28,SE,124,0.0,7.0,66,0.00,,---,0.00,276.00,VWS V14.01,2013-03-10 14:55:00,
2013-03-10 11:00:00,56.2,44.2,30.29,South,170,7.0,7.0,64,0.00,,---,0.00,221.00,VWS V14.01,2013-03-10 15:00:00,
2013-03-10 11:05:00,56.5,44.5,30.29,ESE,112,0.0,5.0,64,0.00,,---,0.00,193.00,VWS V14.01,2013-03-10 15:05:00,
2013-03-10 11:10:00,56.7,44.3,30.29,SE,134,0.0,2.0,63,0.00,,---,0.00,183.00,VWS V14.01,2013-03-10 15:10:00,
2013-03-10 11:15:00,56.8,43.5,30.29,West,277,0.0,6.0,61,0.00,,---,0.00,165.00,VWS V14.01,2013-03-10 15:15:00,
2013-03-10 11:20:00,56.9,43.6,30.29,SW,234,1.0,3.0,61,0.00,,---,0.00,174.00,VWS V14.01,2013-03-10 15:20:00,
2013-03-10 11:25:00,57.1,43.8,30.29,SW,218,0.0,4.0,61,0.00,,---,0.00,195.00,VWS V14.01,2013-03-10 15:25:00,
2013-03-10 11:30:00,57.2,44.3,30.29,SW,218,0.0,1.0,62,0.00,,---,0.00,223.00,VWS V14.01,2013-03-10 15:30:00,
2013-03-10 11:35:00,57.4,44.1,30.29,SW,218,0.0,0.0,61,0.00,,---,0.00,243.00,VWS V14.01,2013-03-10 15:35:00,
2013-03-10 11:40:00,57.5,43.7,30.29,SW,218,0.0,3.0,60,0.00,,---,0.00,272.00,VWS V14.01,2013-03-10 15:40:00,
2013-03-10 11:46:00,57.8,44.0,30.29,SW,217,0.0,3.0,60,0.00,,---,0.00,431.00,VWS V14.01,2013-03-10 15:46:00,
2013-03-10 11:51:00,58.3,43.6,30.29,SW,216,0.0,3.0,58,0.00,,---,0.00,719.00,VWS V14.01,2013-03-10 15:51:00,
2013-03-10 11:56:00,59.4,43.7,30.28,South,188,0.0,4.0,56,0.00,,---,0.00,918.00,VWS V14.01,2013-03-10 15:56:00,
2013-03-10 12:01:00,60.6,44.8,30.28,SE,146,0.0,7.0,56,0.00,,---,0.00,508.00,VWS V14.01,2013-03-10 16:01:00,
2013-03-10 12:06:00,61.4,44.6,30.28,East,89,3.0,6.0,54,0.00,,---,0.00,738.00,VWS V14.01,2013-03-10 16:06:00,
2013-03-10 12:11:00,61.7,43.9,30.28,ESE,115,2.0,6.0,52,0.00,,---,0.00,446.00,VWS V14.01,2013-03-10 16:11:00,
2013-03-10 12:16:00,61.8,43.0,30.28,SE,135,0.0,0.0,50,0.00,,---,0.00,599.00,VWS V14.01,2013-03-10 16:16:00,
2013-03-10 12:21:00,62.5,44.2,30.27,East,94,0.0,0.0,51,0.00,,---,0.00,874.00,VWS V14.01,2013-03-10 16:21:00,
2013-03-10 12:26:00,63.3,44.9,30.28,ENE,73,0.0,0.0,51,0.00,,---,0.00,886.00,VWS V14.01,2013-03-10 16:26:00,
2013-03-10 12:32:00,63.6,44.1,30.27,SE,133,0.0,2.0,49,0.00,,---,0.00,587.00,VWS V14.01,2013-03-10 16:32:00,
2013-03-10 12:37:00,63.8,43.2,30.27,SE,132,5.0,6.0,47,0.00,,---,0.00,622.00,VWS V14.01,2013-03-10 16:37:00,
2013-03-10 12:42:00,63.9,43.3,30.27,SE,140,0.0,1.0,47,0.00,,---,0.00,791.00,VWS V14.01,2013-03-10 16:42:00,
2013-03-10 12:47:00,64.4,44.8,30.27,ESE,107,1.0,5.0,49,0.00,,---,0.00,650.00,VWS V14.01,2013-03-10 16:47:00,
2013-03-10 12:53:00,64.5,44.4,30.26,SE,128,0.0,6.0,48,0.00,,---,0.00,840.00,VWS V14.01,2013-03-10 16:53:00,
2013-03-10 12:58:00,65.1,45.5,30.26,SSE,161,5.0,7.0,49,0.00,,---,0.00,851.00,VWS V14.01,2013-03-10 16:58:00,
2013-03-10 13:03:00,64.6,44.5,30.26,SE,135,0.0,0.0,48,0.00,,---,0.00,851.00,VWS V14.01,2013-03-10 17:03:00,
2013-03-10 13:08:00,65.1,43.8,30.25,ESE,105,4.0,7.0,46,0.00,,---,0.00,860.00,VWS V14.01,2013-03-10 17:08:00,
2013-03-10 13:13:00,65.2,44.5,30.25,ENE,77,0.0,4.0,47,0.00,,---,0.00,872.00,VWS V14.01,2013-03-10 17:13:00,
2013-03-10 13:18:00,65.4,45.2,30.25,East,96,5.0,11.0,48,0.00,,---,0.00,870.00,VWS V14.01,2013-03-10 17:18:00,
2013-03-10 13:23:00,66.0,44.7,30.25,NNE,30,0.0,4.0,46,0.00,,---,0.00,863.00,VWS V14.01,2013-03-10 17:23:00,
2013-03-10 13:28:00,66.4,44.4,30.25,SSE,147,0.0,5.0,45,0.00,,---,0.00,861.00,VWS V14.01,2013-03-10 17:28:00,
2013-03-10 13:34:00,66.7,44.1,30.25,ESE,113,1.0,6.0,44,0.00,,---,0.00,877.00,VWS V14.01,2013-03-10 17:34:00,
2013-03-10 13:39:00,66.5,43.9,30.24,SSE,155,0.0,7.0,44,0.00,,---,0.00,875.00,VWS V14.01,2013-03-10 17:39:00,
2013-03-10 13:44:00,67.0,45.0,30.24,South,183,2.0,7.0,45,0.00,,---,0.00,874.00,VWS V14.01,2013-03-10 17:44:00,
2013-03-10 13:49:00,67.1,43.9,30.24,ESE,113,6.0,8.0,43,0.00,,---,0.00,837.00,VWS V14.01,2013-03-10 17:49:00,
2013-03-10 13:54:00,67.5,44.2,30.23,SE,126,2.0,11.0,43,0.00,,---,0.00,893.00,VWS V14.01,2013-03-10 17:54:00,
2013-03-10 13:59:00,67.5,46.0,30.22,SSE,151,4.0,5.0,46,0.00,,---,0.00,895.00,VWS V14.01,2013-03-10 17:59:00,
2013-03-10 14:04:00,68.2,44.3,30.22,East,98,4.0,10.0,42,0.00,,---,0.00,851.00,VWS V14.01,2013-03-10 18:04:00,
2013-03-10 14:09:00,68.5,44.5,30.22,ENE,60,4.0,6.0,42,0.00,,---,0.00,780.00,VWS V14.01,2013-03-10 18:09:00,
2013-03-10 14:15:00,68.8,46.6,30.22,ESE,119,7.0,9.0,45,0.00,,---,0.00,895.00,VWS V14.01,2013-03-10 18:15:00,
2013-03-10 14:20:00,68.7,44.1,30.21,East,90,5.0,8.0,41,0.00,,---,0.00,838.00,VWS V14.01,2013-03-10 18:20:00,
2013-03-10 14:25:00,69.2,45.2,30.21,SSE,148,0.0,7.0,42,0.00,,---,0.00,816.00,VWS V14.01,2013-03-10 18:25:00,
2013-03-10 14:30:00,69.3,45.2,30.21,SE,132,6.0,9.0,42,0.00,,---,0.00,775.00,VWS V14.01,2013-03-10 18:30:00,
2013-03-10 14:35:00,68.8,44.8,30.20,ESE,105,0.0,7.0,42,0.00,,---,0.00,684.00,VWS V14.01,2013-03-10 18:35:00,
2013-03-10 14:40:00,68.3,43.1,30.20,SE,140,4.0,8.0,40,0.00,,---,0.00,596.00,VWS V14.01,2013-03-10 18:40:00,
2013-03-10 14:45:00,68.4,45.0,30.20,SE,130,1.0,11.0,43,0.00,,---,0.00,842.00,VWS V14.01,2013-03-10 18:45:00,
2013-03-10 14:50:00,69.6,47.3,30.20,ESE,117,0.0,8.0,45,0.00,,---,0.00,837.00,VWS V14.01,2013-03-10 18:50:00,
2013-03-10 14:55:00,69.3,45.2,30.19,SE,140,8.0,8.0,42,0.00,,---,0.00,809.00,VWS V14.01,2013-03-10 18:55:00,
2013-03-10 15:01:00,69.2,44.5,30.19,SSW,196,0.0,8.0,41,0.00,,---,0.00,795.00,VWS V14.01,2013-03-10 19:01:00,
2013-03-10 15:06:00,69.9,45.2,30.19,SE,136,1.0,12.0,41,0.00,,---,0.00,775.00,VWS V14.01,2013-03-10 19:06:00,
2013-03-10 15:11:00,69.7,46.8,30.19,SE,143,7.0,11.0,44,0.00,,---,0.00,751.00,VWS V14.01,2013-03-10 19:11:00,
2013-03-10 15:16:00,69.7,45.6,30.19,East,101,1.0,7.0,42,0.00,,---,0.00,722.00,VWS V14.01,2013-03-10 19:16:00,
2013-03-10 15:21:00,69.8,46.9,30.19,East,101,0.0,5.0,44,0.00,,---,0.00,696.00,VWS V14.01,2013-03-10 19:21:00,
2013-03-10 15:26:00,70.2,47.3,30.19,SE,131,1.0,7.0,44,0.00,,---,0.00,664.00,VWS V14.01,2013-03-10 19:26:00,
2013-03-10 15:31:00,70.8,46.6,30.19,SSE,153,0.0,5.0,42,0.00,,---,0.00,633.00,VWS V14.01,2013-03-10 19:31:00,
2013-03-10 15:37:00,70.3,46.2,30.19,ESE,117,6.0,8.0,42,0.00,,---,0.00,315.00,VWS V14.01,2013-03-10 19:37:00,
2013-03-10 15:42:00,70.3,46.8,30.19,SSE,148,2.0,5.0,43,0.00,,---,0.00,577.00,VWS V14.01,2013-03-10 19:42:00,
2013-03-10 15:47:00,70.4,45.6,30.19,SE,138,4.0,7.0,41,0.00,,---,0.00,555.00,VWS V14.01,2013-03-10 19:47:00,
2013-03-10 15:52:00,70.0,45.9,30.19,South,176,2.0,2.0,42,0.00,,---,0.00,541.00,VWS V14.01,2013-03-10 19:52:00,
2013-03-10 15:57:00,70.7,45.9,30.19,SSW,196,0.0,0.0,41,0.00,,---,0.00,534.00,VWS V14.01,2013-03-10 19:57:00,
2013-03-10 16:02:00,70.6,46.4,30.19,NE,54,0.0,6.0,42,0.00,,---,0.00,533.00,VWS V14.01,2013-03-10 20:02:00,
2013-03-10 16:07:00,70.7,45.2,30.19,ESE,102,2.0,6.0,40,0.00,,---,0.00,540.00,VWS V14.01,2013-03-10 20:07:00,
2013-03-10 16:13:00,70.7,45.9,30.19,SSW,196,5.0,6.0,41,0.00,,---,0.00,557.00,VWS V14.01,2013-03-10 20:13:00,
2013-03-10 16:18:00,71.0,44.8,30.19,SW,219,5.0,11.0,39,0.00,,---,0.00,571.00,VWS V14.01,2013-03-10 20:18:00,
2013-03-10 16:23:00,70.6,44.5,30.18,SSE,157,2.0,4.0,39,0.00,,---,0.00,578.00,VWS V14.01,2013-03-10 20:23:00,
2013-03-10 16:28:00,70.7,44.5,30.18,SSE,149,1.0,8.0,39,0.00,,---,0.00,580.00,VWS V14.01,2013-03-10 20:28:00,
2013-03-10 16:33:00,71.0,44.8,30.18,SE,142,4.0,7.0,39,0.00,,---,0.00,573.00,VWS V14.01,2013-03-10 20:33:00,
2013-03-10 16:39:00,70.9,45.4,30.18,SSE,163,1.0,4.0,40,0.00,,---,0.00,575.00,VWS V14.01,2013-03-10 20:39:00,
2013-03-10 16:44:00,71.2,47.0,30.18,SSE,159,7.0,8.0,42,0.00,,---,0.00,570.00,VWS V14.01,2013-03-10 20:44:00,
2013-03-10 16:49:00,71.0,46.1,30.18,ESE,122,0.0,12.0,41,0.00,,---,0.00,554.00,VWS V14.01,2013-03-10 20:49:00,
2013-03-10 16:54:00,70.9,46.0,30.18,SE,140,1.0,5.0,41,0.00,,---,0.00,522.00,VWS V14.01,2013-03-10 20:54:00,
2013-03-10 16:59:00,71.0,46.1,30.17,SE,128,2.0,8.0,41,0.00,,---,0.00,469.00,VWS V14.01,2013-03-10 20:59:00,
2013-03-10 17:04:00,71.0,46.1,30.18,ESE,117,0.0,10.0,41,0.00,,---,0.00,320.00,VWS V14.01,2013-03-10 21:04:00,
2013-03-10 17:10:00,70.8,46.0,30.18,ESE,109,0.0,7.0,41,0.00,,---,0.00,111.00,VWS V14.01,2013-03-10 21:10:00,
2013-03-10 17:15:00,70.8,46.6,30.18,SE,143,0.0,8.0,42,0.00,,---,0.00,105.00,VWS V14.01,2013-03-10 21:15:00,
2013-03-10 17:20:00,70.6,45.8,30.17,SSE,148,4.0,6.0,41,0.00,,---,0.00,397.00,VWS V14.01,2013-03-10 21:20:00,
2013-03-10 17:25:00,70.6,46.4,30.17,SE,142,7.0,8.0,42,0.00,,---,0.00,408.00,VWS V14.01,2013-03-10 21:25:00,
2013-03-10 17:30:00,70.5,45.7,30.18,SE,129,7.0,8.0,41,0.00,,---,0.00,397.00,VWS V14.01,2013-03-10 21:30:00,
2013-03-10 17:35:00,70.4,45.6,30.17,SE,145,0.0,5.0,41,0.00,,---,0.00,376.00,VWS V14.01,2013-03-10 21:35:00,
2013-03-10 17:40:00,70.6,45.8,30.17,SSE,154,5.0,11.0,41,0.00,,---,0.00,334.00,VWS V14.01,2013-03-10 21:40:00,
2013-03-10 17:45:00,70.4,46.2,30.17,ESE,118,0.0,7.0,42,0.00,,---,0.00,348.00,VWS V14.01,2013-03-10 21:45:00,
2013-03-10 17:51:00,70.3,45.5,30.17,SE,130,5.0,7.0,41,0.00,,---,0.00,316.00,VWS V14.01,2013-03-10 21:51:00,
2013-03-10 17:56:00,70.1,45.3,30.17,South,170,0.0,7.0,41,0.00,,---,0.00,278.00,VWS V14.01,2013-03-10 21:56:00,
2013-03-10 18:01:00,70.1,46.0,30.17,ESE,105,5.0,7.0,42,0.00,,---,0.00,176.00,VWS V14.01,2013-03-10 22:01:00,
2013-03-10 18:06:00,69.9,46.4,30.17,SE,128,4.0,4.0,43,0.00,,---,0.00,244.00,VWS V14.01,2013-03-10 22:06:00,
2013-03-10 18:11:00,69.7,46.2,30.17,SE,142,0.0,0.0,43,0.00,,---,0.00,211.00,VWS V14.01,2013-03-10 22:11:00,
2013-03-10 18:16:00,69.7,46.2,30.17,SE,140,0.0,0.0,43,0.00,,---,0.00,165.00,VWS V14.01,2013-03-10 22:16:00,
2013-03-10 18:22:00,69.6,45.5,30.17,SE,129,2.0,2.0,42,0.00,,---,0.00,135.00,VWS V14.01,2013-03-10 22:22:00,
2013-03-10 18:27:00,69.4,46.0,30.17,SW,225,0.0,2.0,43,0.00,,---,0.00,123.00,VWS V14.01,2013-03-10 22:27:00,
2013-03-10 18:32:00,69.3,46.5,30.17,SE,140,0.0,1.0,44,0.00,,---,0.00,151.00,VWS V14.01,2013-03-10 22:32:00,
2013-03-10 18:37:00,69.2,46.4,30.17,SSE,148,0.0,2.0,44,0.00,,---,0.00,139.00,VWS V14.01,2013-03-10 22:37:00,
2013-03-10 18:42:00,69.1,46.3,30.16,SE,143,4.0,5.0,44,0.00,,---,0.00,121.00,VWS V14.01,2013-03-10 22:42:00,
2013-03-10 18:48:00,69.0,46.2,30.17,SSE,157,0.0,4.0,44,0.00,,---,0.00,102.00,VWS V14.01,2013-03-10 22:48:00,
2013-03-10 18:53:00,68.8,46.6,30.16,SSE,153,4.0,5.0,45,0.00,,---,0.00,69.00,VWS V14.01,2013-03-10 22:53:00,
2013-03-10 18:58:00,68.6,47.0,30.16,SE,132,2.0,5.0,46,0.00,,---,0.00,74.00,VWS V14.01,2013-03-10 22:58:00,
2013-03-10 19:03:00,68.3,46.7,30.16,SSE,165,0.0,5.0,46,0.00,,---,0.00,60.00,VWS V14.01,2013-03-10 23:03:00,
2013-03-10 19:08:00,68.1,46.6,30.16,SE,137,4.0,4.0,46,0.00,,---,0.00,47.00,VWS V14.01,2013-03-10 23:08:00,
2013-03-10 19:13:00,67.8,46.9,30.17,SE,124,0.0,0.0,47,0.00,,---,0.00,30.00,VWS V14.01,2013-03-10 23:13:00,
2013-03-10 19:18:00,67.7,46.8,30.17,SE,124,1.0,1.0,47,0.00,,---,0.00,16.00,VWS V14.01,2013-03-10 23:18:00,
2013-03-10 19:23:00,67.4,47.0,30.17,SE,126,0.0,2.0,48,0.00,,---,0.00,11.00,VWS V14.01,2013-03-10 23:23:00,
2013-03-10 19:28:00,67.1,46.8,30.17,SE,126,0.0,1.0,48,0.00,,---,0.00,5.00,VWS V14.01,2013-03-10 23:28:00,
2013-03-10 19:34:00,66.8,47.0,30.17,SE,138,1.0,2.0,49,0.00,,---,0.00,0.00,VWS V14.01,2013-03-10 23:34:00,
2013-03-10 19:39:00,66.3,46.6,30.17,SE,141,1.0,4.0,49,0.00,,---,0.00,0.00,VWS V14.01,2013-03-10 23:39:00,
2013-03-10 19:44:00,65.8,46.7,30.17,SSE,150,0.0,0.0,50,0.00,,---,0.00,0.00,VWS V14.01,2013-03-10 23:44:00,
2013-03-10 19:49:00,65.4,46.8,30.17,SSE,150,0.0,0.0,51,0.00,,---,0.00,0.00,VWS V14.01,2013-03-10 23:49:00,
2013-03-10 19:54:00,65.0,47.0,30.17,SSE,150,0.0,0.0,52,0.00,,---,0.00,0.00,VWS V14.01,2013-03-10 23:54:00,
2013-03-10 19:59:00,64.5,46.5,30.17,SSE,150,0.0,1.0,52,0.00,,---,0.00,0.00,VWS V14.01,2013-03-10 23:59:00,
2013-03-10 20:04:00,64.1,46.6,30.17,SSE,150,0.0,1.0,53,0.00,,---,0.00,0.00,VWS V14.01,2013-03-11 00:04:00,
2013-03-10 20:09:00,63.7,46.8,30.18,SSE,150,0.0,0.0,54,0.00,,---,0.00,0.00,VWS V14.01,2013-03-11 00:09:00,
2013-03-10 20:14:00,63.2,46.8,30.18,SSE,150,0.0,0.0,55,0.00,,---,0.00,0.00,VWS V14.01,2013-03-11 00:14:00,
2013-03-10 20:19:00,62.9,46.5,30.18,SSE,150,0.0,0.0,55,0.00,,---,0.00,0.00,VWS V14.01,2013-03-11 00:19:00,
2013-03-10 20:25:00,62.5,46.6,30.19,SSE,150,0.0,0.0,56,0.00,,---,0.00,0.00,VWS V14.01,2013-03-11 00:25:00,
2013-03-10 20:30:00,62.2,46.8,30.19,SSE,150,0.0,1.0,57,0.00,,---,0.00,0.00,VWS V14.01,2013-03-11 00:30:00,
2013-03-10 20:35:00,61.8,46.4,30.19,SE,141,5.0,7.0,57,0.00,,---,0.00,0.00,VWS V14.01,2013-03-11 00:35:00,
2013-03-10 20:40:00,61.6,46.7,30.20,SSE,157,1.0,6.0,58,0.00,,---,0.00,0.00,VWS V14.01,2013-03-11 00:40:00,
2013-03-10 20:45:00,61.4,47.0,30.20,SSE,156,0.0,0.0,59,0.00,,---,0.00,0.00,VWS V14.01,2013-03-11 00:45:00,
2013-03-10 20:50:00,61.3,46.9,30.20,SSE,156,0.0,2.0,59,0.00,,---,0.00,0.00,VWS V14.01,2013-03-11 00:50:00,
2013-03-10 20:55:00,61.1,47.1,30.19,SSE,156,0.0,2.0,60,0.00,,---,0.00,0.00,VWS V14.01,2013-03-11 00:55:00,
2013-03-10 21:00:00,60.9,46.9,30.20,SSE,156,0.0,0.0,60,0.00,,---,0.00,0.00,VWS V14.01,2013-03-11 01:00:00,
2013-03-10 21:05:00,60.7,47.2,30.20,SSE,155,2.0,5.0,61,0.00,,---,0.00,0.00,VWS V14.01,2013-03-11 01:05:00,
2013-03-10 21:11:00,60.4,47.3,30.20,SE,134,5.0,6.0,62,0.00,,---,0.00,0.00,VWS V14.01,2013-03-11 01:11:00,
2013-03-10 21:16:00,60.2,48.0,30.20,SSE,148,0.0,5.0,64,0.00,,---,0.00,0.00,VWS V14.01,2013-03-11 01:16:00,
2013-03-10 21:22:00,60.0,48.2,30.20,SSE,147,0.0,0.0,65,0.00,,---,0.00,0.00,VWS V14.01,2013-03-11 01:22:00,
2013-03-10 21:27:00,59.9,48.5,30.20,SSE,153,5.0,5.0,66,0.00,,---,0.00,0.00,VWS V14.01,2013-03-11 01:27:00,
2013-03-10 21:32:00,59.7,48.7,30.20,SSE,156,1.0,2.0,67,0.00,,---,0.00,0.00,VWS V14.01,2013-03-11 01:32:00,
2013-03-10 21:37:00,59.5,48.9,30.20,SSE,147,0.0,1.0,68,0.00,,---,0.00,0.00,VWS V14.01,2013-03-11 01:37:00,
2013-03-10 21:42:00,59.4,49.2,30.20,ESE,117,1.0,5.0,69,0.00,,---,0.00,0.00,VWS V14.01,2013-03-11 01:42:00,
2013-03-10 21:47:00,59.3,49.1,30.20,SE,136,5.0,5.0,69,0.00,,---,0.00,0.00,VWS V14.01,2013-03-11 01:47:00,
2013-03-10 21:52:00,59.1,49.3,30.20,SE,140,0.0,5.0,70,0.00,,---,0.00,0.00,VWS V14.01,2013-03-11 01:52:00,
2013-03-10 21:57:00,59.0,49.2,30.20,SSE,165,0.0,2.0,70,0.00,,---,0.00,0.00,VWS V14.01,2013-03-11 01:57:00,
2013-03-10 22:03:00,58.9,49.5,30.20,SSE,161,1.0,5.0,71,0.00,,---,0.00,0.00,VWS V14.01,2013-03-11 02:03:00,
2013-03-10 22:08:00,58.6,49.2,30.20,SE,141,2.0,4.0,71,0.00,,---,0.00,0.00,VWS V14.01,2013-03-11 02:08:00,
2013-03-10 22:13:00,58.5,49.5,30.19,SE,130,0.0,2.0,72,0.00,,---,0.00,0.00,VWS V14.01,2013-03-11 02:13:00,
2013-03-10 22:18:00,58.3,49.3,30.20,SE,131,0.0,2.0,72,0.00,,---,0.00,0.00,VWS V14.01,2013-03-11 02:18:00,
2013-03-10 22:23:00,58.0,49.0,30.19,SE,134,0.0,5.0,72,0.00,,---,0.00,0.00,VWS V14.01,2013-03-11 02:23:00,
2013-03-10 22:28:00,57.9,49.3,30.20,ESE,123,0.0,0.0,73,0.00,,---,0.00,0.00,VWS V14.01,2013-03-11 02:28:00,
2013-03-10 22:33:00,57.7,49.1,30.20,SE,130,4.0,5.0,73,0.00,,---,0.00,0.00,VWS V14.01,2013-03-11 02:33:00,
2013-03-10 22:38:00,57.5,48.9,30.20,SE,130,1.0,2.0,73,0.00,,---,0.00,0.00,VWS V14.01,2013-03-11 02:38:00,
2013-03-10 22:43:00,57.4,48.8,30.20,SE,134,0.0,1.0,73,0.00,,---,0.00,0.00,VWS V14.01,2013-03-11 02:43:00,
2013-03-10 22:48:00,57.2,49.0,30.20,SE,134,0.0,1.0,74,0.00,,---,0.00,0.00,VWS V14.01,2013-03-11 02:48:00,
2013-03-10 22:53:00,57.1,48.9,30.20,SE,134,1.0,2.0,74,0.00,,---,0.00,0.00,VWS V14.01,2013-03-11 02:53:00,
2013-03-10 22:58:00,56.8,48.6,30.21,SE,128,2.0,5.0,74,0.00,,---,0.00,0.00,VWS V14.01,2013-03-11 02:58:00,
2013-03-10 23:04:00,56.6,48.4,30.21,SE,125,0.0,4.0,74,0.00,,---,0.00,0.00,VWS V14.01,2013-03-11 03:04:00,
2013-03-10 23:09:00,56.4,48.2,30.21,SE,124,0.0,2.0,74,0.00,,---,0.00,0.00,VWS V14.01,2013-03-11 03:09:00,
2013-03-10 23:14:00,56.3,48.1,30.21,SE,124,1.0,4.0,74,0.00,,---,0.00,0.00,VWS V14.01,2013-03-11 03:14:00,
2013-03-10 23:19:00,56.2,48.0,30.22,SE,125,0.0,0.0,74,0.00,,---,0.00,0.00,VWS V14.01,2013-03-11 03:19:00,
2013-03-10 23:24:00,56.0,47.8,30.22,SE,125,0.0,0.0,74,0.00,,---,0.00,0.00,VWS V14.01,2013-03-11 03:24:00,
2013-03-10 23:29:00,55.8,47.7,30.21,SE,124,0.0,4.0,74,0.00,,---,0.00,0.00,VWS V14.01,2013-03-11 03:29:00,
2013-03-10 23:34:00,55.6,47.5,30.22,ESE,123,1.0,2.0,74,0.00,,---,0.00,0.00,VWS V14.01,2013-03-11 03:34:00,
2013-03-10 23:40:00,55.4,46.9,30.21,ESE,121,0.0,4.0,73,0.00,,---,0.00,0.00,VWS V14.01,2013-03-11 03:40:00,
2013-03-10 23:45:00,55.3,46.8,30.21,ESE,119,0.0,4.0,73,0.00,,---,0.00,0.00,VWS V14.01,2013-03-11 03:45:00,
2013-03-10 23:50:00,55.0,46.9,30.21,ESE,119,0.0,0.0,74,0.00,,---,0.00,0.00,VWS V14.01,2013-03-11 03:50:00,
2013-03-10 23:55:00,54.8,46.7,30.21,ESE,119,0.0,1.0,74,0.00,,---,0.00,0.00,VWS V14.01,2013-03-11 03:55:00,